EZY42N EHRD-EGLC

Flight info

Callsign EZY42N
Flight time 0h 43m
Altitude 20000
Route ABNED L980 XAMAN
Aircraft A20N/M-SDE2E3FGHIRWXY/LB1

Departure

Time 2026-05-06 20:29
Airport Rotterdam The Hague Airport (EHRD)

Arrival

Time 2026-05-06 21:12
Airport London City Airport (EGLC)
Time Latitude Longitude Altitude Speed Heading
2026-05-06 20:08 51.95190 4.43404 1 ft 0 kts 327°
2026-05-06 20:23 51.95187 4.43407 0 ft 2 kts 327°
2026-05-06 20:24 51.95177 4.43418 0 ft 2 kts 327°
2026-05-06 20:24 51.95166 4.43429 0 ft 2 kts 327°
2026-05-06 20:24 51.95155 4.43440 0 ft 2 kts 331°
2026-05-06 20:24 51.95143 4.43444 0 ft 1 kts 38°
2026-05-06 20:25 51.95142 4.43443 0 ft 0 kts 40°
2026-05-06 20:26 51.95149 4.43453 0 ft 3 kts 46°
2026-05-06 20:26 51.95187 4.43486 0 ft 9 kts 349°
2026-05-06 20:27 51.95240 4.43401 0 ft 10 kts 254°
2026-05-06 20:27 51.95181 4.43248 0 ft 21 kts 237°
2026-05-06 20:27 51.95110 4.43004 0 ft 20 kts 261°
2026-05-06 20:27 51.95208 4.42858 1 ft 14 kts 355°
2026-05-06 20:28 51.95243 4.42912 2 ft 0 kts 58°
2026-05-06 20:28 51.95252 4.42935 1 ft 13 kts 58°
2026-05-06 20:28 51.95471 4.43481 -1 ft 101 kts 57°
2026-05-06 20:28 51.95972 4.44737 176 ft 148 kts 57°
2026-05-06 20:29 51.96482 4.46141 1175 ft 140 kts 59°
2026-05-06 20:29 51.96943 4.47522 2161 ft 138 kts 61°
2026-05-06 20:29 51.97383 4.48904 2845 ft 148 kts 59°
2026-05-06 20:29 51.98001 4.50529 3024 ft 190 kts 51°
2026-05-06 20:30 51.99170 4.51782 2982 ft 214 kts 15°
2026-05-06 20:30 52.01941 4.50269 3002 ft 230 kts 309°
2026-05-06 20:30 52.02553 4.47901 3003 ft 237 kts 277°
2026-05-06 20:31 52.02335 4.45253 3001 ft 239 kts 249°
2026-05-06 20:31 52.01493 4.42924 3027 ft 243 kts 230°
2026-05-06 20:31 52.00303 4.40964 3479 ft 245 kts 220°
2026-05-06 20:31 51.99003 4.39275 4497 ft 241 kts 217°
2026-05-06 20:32 51.97640 4.37647 5594 ft 241 kts 217°
2026-05-06 20:32 51.96500 4.35676 6527 ft 242 kts 244°
2026-05-06 20:32 51.96044 4.33073 7385 ft 244 kts 263°
2026-05-06 20:32 51.95816 4.30230 7945 ft 265 kts 264°
2026-05-06 20:33 51.95585 4.27172 8585 ft 279 kts 264°
2026-05-06 20:33 51.95339 4.24033 9543 ft 283 kts 263°
2026-05-06 20:33 51.95079 4.20850 10386 ft 291 kts 263°
2026-05-06 20:33 51.94796 4.17464 10775 ft 314 kts 263°
2026-05-06 20:34 51.94489 4.13847 11179 ft 332 kts 263°
2026-05-06 20:34 51.94168 4.10102 11984 ft 337 kts 263°
2026-05-06 20:34 51.93836 4.06329 12891 ft 339 kts 262°
2026-05-06 20:34 51.93473 4.02539 13767 ft 343 kts 262°
2026-05-06 20:35 51.93096 3.98710 14549 ft 345 kts 262°
2026-05-06 20:35 51.92718 3.94863 15345 ft 347 kts 262°
2026-05-06 20:35 51.92339 3.90986 16119 ft 350 kts 262°
2026-05-06 20:35 51.91957 3.87076 16857 ft 353 kts 261°
2026-05-06 20:36 51.91572 3.83137 17624 ft 355 kts 261°
2026-05-06 20:36 51.91183 3.79161 18327 ft 359 kts 261°
2026-05-06 20:36 51.90787 3.75141 18962 ft 363 kts 261°
2026-05-06 20:36 51.90387 3.71096 19567 ft 366 kts 261°
2026-05-06 20:37 51.89986 3.67053 19870 ft 370 kts 261°
2026-05-06 20:37 51.89572 3.62885 19961 ft 371 kts 261°
2026-05-06 20:37 51.89160 3.58769 19967 ft 370 kts 261°
2026-05-06 20:37 51.88749 3.54672 19966 ft 368 kts 261°
2026-05-06 20:38 51.88337 3.50588 19964 ft 368 kts 261°
2026-05-06 20:38 51.87924 3.46497 19968 ft 368 kts 261°
2026-05-06 20:38 51.87514 3.42459 19967 ft 369 kts 261°
2026-05-06 20:38 51.87099 3.38373 19983 ft 369 kts 261°
2026-05-06 20:39 51.86673 3.34201 19968 ft 371 kts 261°
2026-05-06 20:39 51.86257 3.30148 19963 ft 370 kts 261°
2026-05-06 20:39 51.86020 3.27845 19980 ft 368 kts 261°
2026-05-06 20:39 51.85598 3.23761 19961 ft 369 kts 261°
2026-05-06 20:40 51.85175 3.19669 19962 ft 369 kts 261°
2026-05-06 20:40 51.84757 3.15571 19972 ft 368 kts 262°
2026-05-06 20:40 51.84453 3.11472 19980 ft 367 kts 264°
2026-05-06 20:40 51.84219 3.07426 19972 ft 366 kts 265°
2026-05-06 20:41 51.83988 3.03335 19974 ft 366 kts 265°
2026-05-06 20:41 51.83745 2.99249 19980 ft 368 kts 264°
2026-05-06 20:41 51.83485 2.95112 19976 ft 367 kts 264°
2026-05-06 20:41 51.83219 2.91015 19983 ft 366 kts 264°
2026-05-06 20:42 51.82949 2.86928 19979 ft 366 kts 264°
2026-05-06 20:42 51.82675 2.82827 19981 ft 368 kts 264°
2026-05-06 20:42 51.82400 2.78720 19984 ft 368 kts 264°
2026-05-06 20:42 51.82123 2.74610 19983 ft 369 kts 264°
2026-05-06 20:43 51.81844 2.70495 19986 ft 368 kts 264°
2026-05-06 20:43 51.81564 2.66381 19988 ft 369 kts 264°
2026-05-06 20:43 51.81281 2.62247 19987 ft 371 kts 264°
2026-05-06 20:43 51.80994 2.58103 19987 ft 372 kts 264°
2026-05-06 20:44 51.80706 2.53956 19987 ft 371 kts 264°
2026-05-06 20:44 51.80417 2.49813 19878 ft 372 kts 264°
2026-05-06 20:44 51.80126 2.45664 19637 ft 371 kts 264°
2026-05-06 20:44 51.79835 2.41536 19394 ft 368 kts 264°
2026-05-06 20:45 51.79545 2.37454 19120 ft 365 kts 264°
2026-05-06 20:45 51.79255 2.33380 18619 ft 365 kts 264°
2026-05-06 20:45 51.78963 2.29309 18047 ft 363 kts 264°
2026-05-06 20:45 51.78674 2.25293 17528 ft 358 kts 264°
2026-05-06 20:46 51.78388 2.21322 17011 ft 354 kts 264°
2026-05-06 20:46 51.78141 2.17388 16504 ft 350 kts 265°
2026-05-06 20:46 51.77922 2.13508 16003 ft 346 kts 265°
2026-05-06 20:46 51.77707 2.09655 15505 ft 342 kts 265°
2026-05-06 20:47 51.77489 2.05841 15006 ft 340 kts 265°
2026-05-06 20:47 51.77269 2.02060 14515 ft 337 kts 265°
2026-05-06 20:47 51.77046 1.98305 14031 ft 335 kts 265°
2026-05-06 20:47 51.76822 1.94577 13506 ft 333 kts 265°
2026-05-06 20:48 51.76599 1.90882 13038 ft 329 kts 265°
2026-05-06 20:48 51.76377 1.87228 12557 ft 326 kts 265°
2026-05-06 20:48 51.76155 1.83599 12059 ft 323 kts 265°
2026-05-06 20:48 51.75934 1.80013 11610 ft 320 kts 265°
2026-05-06 20:49 51.75714 1.76444 11136 ft 318 kts 265°
2026-05-06 20:49 51.75495 1.72901 10680 ft 316 kts 265°
2026-05-06 20:49 51.75278 1.69438 10534 ft 304 kts 265°
2026-05-06 20:49 51.75069 1.66120 10375 ft 292 kts 265°
2026-05-06 20:50 51.74865 1.62880 10088 ft 287 kts 265°
2026-05-06 20:50 51.74664 1.59713 9874 ft 279 kts 265°
2026-05-06 20:50 51.74466 1.56574 9690 ft 286 kts 265°
2026-05-06 20:50 51.74263 1.53372 9378 ft 292 kts 265°
2026-05-06 20:51 51.74057 1.50170 9287 ft 282 kts 265°
2026-05-06 20:51 51.73857 1.47088 9179 ft 271 kts 265°
2026-05-06 20:51 51.73446 1.44203 9069 ft 261 kts 245°
2026-05-06 20:51 51.72348 1.41989 8998 ft 249 kts 218°
2026-05-06 20:52 51.70844 1.40721 9004 ft 247 kts 205°
2026-05-06 20:52 51.69255 1.39589 9002 ft 249 kts 205°
2026-05-06 20:52 51.67679 1.38456 8999 ft 247 kts 205°
2026-05-06 20:52 51.66106 1.37322 9003 ft 248 kts 206°
2026-05-06 20:53 51.64531 1.36188 9005 ft 249 kts 206°
2026-05-06 20:53 51.62954 1.35055 8989 ft 247 kts 206°
2026-05-06 20:53 51.61398 1.33917 8778 ft 245 kts 211°
2026-05-06 20:53 51.60145 1.32087 8276 ft 247 kts 240°
2026-05-06 20:54 51.59590 1.29474 7650 ft 252 kts 264°
2026-05-06 20:54 51.59390 1.26613 7029 ft 263 kts 266°
2026-05-06 20:54 51.59231 1.23634 6445 ft 271 kts 267°
2026-05-06 20:54 51.59062 1.20613 6094 ft 269 kts 266°
2026-05-06 20:55 51.58875 1.17602 5991 ft 273 kts 265°
2026-05-06 20:55 51.58742 1.15588 5983 ft 273 kts 265°
2026-05-06 20:55 51.58534 1.12562 5989 ft 272 kts 265°
2026-05-06 20:55 51.58321 1.09542 5989 ft 272 kts 265°
2026-05-06 20:56 51.58105 1.06521 5986 ft 272 kts 265°
2026-05-06 20:56 51.57889 1.03495 5990 ft 272 kts 265°
2026-05-06 20:56 51.57599 0.99456 5988 ft 272 kts 264°
2026-05-06 20:56 51.57456 0.97457 5996 ft 272 kts 264°
2026-05-06 20:57 51.57237 0.94438 5995 ft 272 kts 264°
2026-05-06 20:57 51.57019 0.91419 5996 ft 272 kts 264°
2026-05-06 20:57 51.56799 0.88388 5998 ft 272 kts 264°
2026-05-06 20:57 51.56579 0.85379 6001 ft 272 kts 264°
2026-05-06 20:58 51.56358 0.82359 5998 ft 272 kts 264°
2026-05-06 20:58 51.56136 0.79342 6001 ft 272 kts 264°
2026-05-06 20:58 51.55913 0.76326 6003 ft 272 kts 264°
2026-05-06 20:58 51.55690 0.73304 5998 ft 272 kts 264°
2026-05-06 20:59 51.55465 0.70283 5998 ft 272 kts 264°
2026-05-06 20:59 51.55241 0.67272 5919 ft 270 kts 264°
2026-05-06 20:59 51.55017 0.64279 5625 ft 270 kts 264°
2026-05-06 20:59 51.54793 0.61295 5267 ft 269 kts 264°
2026-05-06 21:00 51.54568 0.58319 4901 ft 267 kts 264°
2026-05-06 21:00 51.54345 0.55367 4522 ft 266 kts 264°
2026-05-06 21:00 51.54156 0.52884 4206 ft 265 kts 264°
2026-05-06 21:00 51.53935 0.49975 4030 ft 263 kts 264°
2026-05-06 21:01 51.53712 0.47047 3995 ft 265 kts 264°
2026-05-06 21:01 51.53486 0.44100 3999 ft 265 kts 264°
2026-05-06 21:01 51.53261 0.41170 3995 ft 265 kts 264°
2026-05-06 21:01 51.53035 0.38238 3993 ft 265 kts 264°
2026-05-06 21:02 51.52808 0.35313 4015 ft 264 kts 264°
2026-05-06 21:02 51.52581 0.32383 4012 ft 264 kts 264°
2026-05-06 21:02 51.52159 0.29531 3949 ft 264 kts 244°
2026-05-06 21:02 51.51106 0.27134 3655 ft 264 kts 231°
2026-05-06 21:03 51.49938 0.24850 3269 ft 264 kts 231°
2026-05-06 21:03 51.48777 0.22583 2900 ft 263 kts 231°
2026-05-06 21:03 51.47612 0.20316 2540 ft 263 kts 231°
2026-05-06 21:03 51.46451 0.18064 2194 ft 261 kts 231°
2026-05-06 21:04 51.45300 0.15845 2047 ft 260 kts 231°
2026-05-06 21:04 51.44318 0.13428 2035 ft 259 kts 252°
2026-05-06 21:04 51.44066 0.10606 2031 ft 257 kts 270°
2026-05-06 21:04 51.44040 0.07743 2034 ft 256 kts 271°
2026-05-06 21:05 51.44014 0.04883 2032 ft 257 kts 271°
2026-05-06 21:05 51.43986 0.02022 2024 ft 257 kts 271°
2026-05-06 21:05 51.43957 -0.00803 2027 ft 247 kts 271°
2026-05-06 21:05 51.43927 -0.03479 2027 ft 233 kts 271°
2026-05-06 21:06 51.43901 -0.05964 2028 ft 220 kts 271°
2026-05-06 21:06 51.43871 -0.08342 2022 ft 207 kts 271°
2026-05-06 21:06 51.43841 -0.10574 2005 ft 193 kts 271°
2026-05-06 21:06 51.43831 -0.12648 2017 ft 185 kts 281°
2026-05-06 21:07 51.44381 -0.14438 2020 ft 181 kts 321°
2026-05-06 21:07 51.45502 -0.15207 2027 ft 177 kts 357°
2026-05-06 21:07 51.46735 -0.15244 2022 ft 176 kts
2026-05-06 21:07 51.47982 -0.15232 2023 ft 178 kts
2026-05-06 21:08 51.49204 -0.15220 2025 ft 180 kts
2026-05-06 21:08 51.50415 -0.14951 2029 ft 169 kts 27°
2026-05-06 21:08 51.51377 -0.13907 2017 ft 165 kts 36°
2026-05-06 21:08 51.52242 -0.12862 2030 ft 153 kts 37°
2026-05-06 21:09 51.52946 -0.11557 2028 ft 158 kts 53°
2026-05-06 21:09 51.53227 -0.09908 2046 ft 161 kts 94°
2026-05-06 21:09 51.53026 -0.08174 2019 ft 148 kts 99°
2026-05-06 21:09 51.52779 -0.06599 1808 ft 143 kts 107°
2026-05-06 21:10 51.52247 -0.05324 1742 ft 135 kts 136°
2026-05-06 21:10 51.51438 -0.04596 2042 ft 136 kts 143°
2026-05-06 21:10 51.50887 -0.03377 1856 ft 137 kts 103°
2026-05-06 21:10 51.50752 -0.01904 1509 ft 134 kts 87°
2026-05-06 21:11 51.50737 -0.00420 1189 ft 131 kts 88°
2026-05-06 21:11 51.50679 0.01052 831 ft 133 kts 90°
2026-05-06 21:11 51.50613 0.02522 501 ft 131 kts 89°
2026-05-06 21:11 51.50570 0.03987 183 ft 132 kts 89°
2026-05-06 21:12 51.50530 0.05423 28 ft 119 kts 91°
2026-05-06 21:12 51.50509 0.06120 27 ft 11 kts 93°
2026-05-06 21:12 51.50495 0.06292 28 ft 17 kts 118°
2026-05-06 21:12 51.50423 0.06289 28 ft 13 kts 242°
2026-05-06 21:13 51.50428 0.06136 28 ft 18 kts 269°
2026-05-06 21:13 51.50438 0.05897 28 ft 25 kts 272°
2026-05-06 21:13 51.50448 0.05588 28 ft 29 kts 274°
2026-05-06 21:13 51.50443 0.05351 28 ft 8 kts 232°
2026-05-06 21:14 51.50402 0.05335 28 ft 0 kts 183°